Regional Weather Roundup
Issued by NWS

Home | Current Version | Previous Version | Graphics & Text | Print | Product List | Glossary On
Versions: 1 2 3 4 5 6 7 8 9 10 11 12 13 14 15 16 17 18 19 20 21 22 23 24 25 26 27 28 29 30 31 32 33 34 35 36 37 38 39 40 41 42 43 44 45 46 47 48 49 50
000
ASUS43 KLMK 161910
RWRKY
KENTUCKY REGIONAL WEATHER ROUNDUP
NATIONAL WEATHER SERVICE LOUISVILLE KY
300 PM EDT MON OCT 16 2017

NOTE "FAIR" INDICATES FEW OR NO CLOUDS BELOW 12,000 FEET
WITH NO SIGNIFICANT WEATHER AND/OR OBSTRUCTIONS TO VISIBILITY.

KYZ001>023-026-027-061>063-070>075-162000-
WESTERN AND SOUTH CENTRAL KENTUCKY

CITY           SKY/WX    TMP DP  RH WIND       PRES   REMARKS
PADUCAH        SUNNY     64  36  35 N12G17    30.33F
HENDERSON      SUNNY     62  38  40 N7        30.34F
OWENSBORO      MOSUNNY   62  38  40 NW8       30.33F
HOPKINSVILLE   SUNNY     61  40  46 NE9       30.30F
BOWLING GREEN  MOSUNNY   64  42  44 NE8       30.30F
GLASGOW        MOSUNNY   62  39  42 NE7       30.29F
$$

KYZ024-025-028>034-038-045-046-053-162000-
NORTH CENTRAL KENTUCKY

CITY           SKY/WX    TMP DP  RH WIND       PRES   REMARKS
LOUISVILLE/SDF MOSUNNY   63  39  41 N9        30.30F
LOUISVILLE/LOU MOSUNNY   63  41  44 NE8       30.31F
FORT KNOX      MOSUNNY   59  40  49 N8        30.29F
$$

KYZ035>037-039>044-047>052-055>060-089>105-162000-
NORTHEAST KENTUCKY

CITY           SKY/WX    TMP DP  RH WIND       PRES   REMARKS
LEXINGTON      MOSUNNY   62  41  46 N8        30.29F
COVINGTON      MOSUNNY   61  39  44 VRB7      30.29F
FRANKFORT      PTSUNNY   62  38  40 N7        30.29F
$$

KYZ054-064>069-076>088-106>120-162000-
SOUTHEAST KENTUCKY

CITY           SKY/WX    TMP DP  RH WIND       PRES   REMARKS
JACKSON        MOSUNNY   57  40  52 VRB3      30.27F
LONDON         MOSUNNY   61  38  42 N10       30.28F
SOMERSET       PTSUNNY   59  37  44 N8        30.30F
MIDDLESBORO    PTSUNNY   62  42  48 N5        30.26F
MONTICELLO     PTCLDY    61  41  47 N22       30.31
$$





USA.gov is the U.S. government's official web portal to all federal, state and local government web resources and services.